EW1970 Weather Reports


Display with metric or nautical units.
time (UTC)temp
F
wind
direction
speed
MPH
gust
MPH
rain 1hr
in
rain 24hr
in
rain mn
in
humidity
%
barometer
mb
20260906031508 85 134 1.0 4.0 0.00 0.00 0.00 64 1013.8
20260906030013 86 183 0.0 6.0 0.00 0.00 0.00 63 1013.6
20260906024533 87 148 1.0 6.0 0.00 0.00 0.00 61 1013.4
20260906023025 87 150 0.0 5.0 0.00 0.00 0.00 60 1012.9
20260906021538 88 43 1.0 6.0 0.00 0.00 0.00 58 1012.4
20260906020013 88 40 1.0 6.0 0.00 0.00 0.00 57 1012.0
20260906014541 89 136 1.0 5.0 0.00 0.00 0.00 57 1011.9
20260906013033 89 113 1.0 8.0 0.00 0.00 0.00 55 1011.8
20260906011530 90 72 1.0 5.0 0.00 0.00 0.00 54 1011.8
20260906010030 91 91 2.0 9.0 0.00 0.00 0.00 53 1011.6
20260906004504 91 105 0.0 6.0 0.00 0.00 0.00 52 1011.6
20260906003008 92 134 1.0 6.0 0.00 0.00 0.00 51 1011.5
20260906001506 93 196 0.0 3.0 0.00 0.00 0.00 48 1011.4
20260906000004 94 101 1.0 6.0 0.00 0.00 0.00 47 1011.4
20260905234503 94 138 0.0 4.0 0.00 0.00 0.00 44 1011.2
20260905233003 95 132 0.0 2.0 0.00 0.00 0.00 43 1011.2
20260905231504 96 146 0.0 2.0 0.00 0.00 0.00 41 1011.2
20260905230005 97 68 0.0 2.0 0.00 0.00 0.00 40 1011.2
20260905224510 97 60 0.0 2.0 0.00 0.00 0.00 39 1011.2
20260905223004 96 66 0.0 2.0 0.00 0.00 0.00 41 1011.2
20260905221503 93 63 0.0 2.0 0.00 0.00 0.00 44 1011.4
20260905220003 95 315 0.0 2.0 0.00 0.00 0.00 41 1011.5
20260905214505 100 111 1.0 3.0 0.00 0.00 0.00 37 1011.5
20260905213007 100 102 1.0 2.0 0.00 0.00 0.00 37 1011.5
20260905211504 100 246 2.0 3.0 0.00 0.00 0.00 38 1011.7
20260905210007 100 317 0.0 4.0 0.00 0.00 0.00 37 1011.9
20260905204503 100 155 0.0 5.0 0.00 0.00 0.00 36 1012.2
20260905203008 99 46 1.0 4.0 0.00 0.00 0.00 38 1012.5
20260905201508 99 236 2.0 6.0 0.00 0.00 0.00 37 1012.6
20260905200008 98 103 0.0 3.0 0.00 0.00 0.00 38 1012.9
20260905194509 97 134 1.0 6.0 0.00 0.00 0.00 40 1013.1
20260905193007 99 230 1.0 3.0 0.00 0.00 0.00 38 1013.4
20260905191509 98 109 1.0 5.0 0.00 0.00 0.00 38 1013.6
20260905190009 98 144 0.0 6.0 0.00 0.00 0.00 40 1013.9
20260905184519 97 227 0.0 8.0 0.00 0.00 0.00 40 1014.3
20260905183010 98 222 0.0 7.0 0.00 0.00 0.00 41 1014.4
20260905181509 97 149 1.0 5.0 0.00 0.00 0.00 45 1014.7
20260905180016 97 80 1.0 3.0 0.00 0.00 0.00 46 1015.0
20260905174511 96 200 1.0 4.0 0.00 0.00 0.00 46 1015.3
20260905173011 95 156 0.0 6.0 0.00 0.00 0.00 48 1015.5
20260905171515 93 86 0.0 4.0 0.00 0.00 0.00 51 1015.6
20260905170012 89 236 1.0 5.0 0.00 0.00 0.00 61 1015.8
20260905164516 91 123 1.0 8.0 0.00 0.00 0.00 57 1015.9
20260905163018 90 72 1.0 8.0 0.00 0.00 0.00 58 1015.9
20260905161518 90 257 1.0 8.0 0.00 0.00 0.00 61 1015.9
20260905160021 89 200 1.0 4.0 0.00 0.00 0.00 62 1015.9
20260905154519 87 220 1.0 7.0 0.00 0.00 0.00 68 1015.9
20260905153003 85 246 2.0 5.0 0.00 0.00 0.00 70 1015.9
20260905151508 84 269 0.0 3.0 0.00 0.00 0.00 75 1016.0
20260905150008 83 91 1.0 4.0 0.00 0.00 0.00 76 1016.0
20260905144521 83 295 2.0 8.0 0.00 0.00 0.00 78 1015.9
20260905143027 81 265 0.0 4.0 0.00 0.00 0.00 83 1016.1
20260905141504 80 234 0.0 6.0 0.00 0.00 0.00 85 1015.8
20260905140006 80 283 0.0 2.0 0.00 0.00 0.00 87 1015.6
20260905134509 79 255 0.0 2.0 0.00 0.00 0.00 91 1015.5
20260905133018 77 83 0.0 3.0 0.00 0.00 0.00 92 1015.4
20260905131524 76 117 0.0 2.0 0.00 0.00 0.00 92 1015.2
20260905130007 76 121 0.0 2.0 0.00 0.00 0.00 92 1015.0
20260905124520 75 271 0.0 0.0 0.00 0.00 0.00 92 1014.9
20260905123018 75 271 0.0 0.0 0.00 0.00 0.00 92 1014.7
20260905121524 75 271 0.0 0.0 0.00 0.00 0.00 92 1014.7
20260905120031 75 271 0.0 0.0 0.00 0.00 0.00 92 1014.3
20260905114511 75 271 0.0 0.0 0.00 0.00 0.00 92 1014.4
20260905113015 75 271 0.0 0.0 0.00 0.00 0.00 92 1014.4
20260905111522 75 271 0.0 0.0 0.00 0.00 0.00 91 1014.3
20260905110028 76 271 0.0 0.0 0.00 0.00 0.00 91 1014.2
20260905104536 76 271 0.0 0.0 0.00 0.00 0.00 91 1014.3
20260905103011 76 271 0.0 0.0 0.00 0.00 0.00 91 1014.3
20260905101517 76 271 0.0 0.0 0.00 0.00 0.00 90 1014.4
20260905100025 76 271 0.0 2.0 0.00 0.00 0.00 90 1014.2
20260905094527 76 271 0.0 0.0 0.00 0.00 0.00 89 1014.0
20260905093032 77 271 0.0 0.0 0.00 0.00 0.00 88 1014.1
20260905091516 77 271 0.0 2.0 0.00 0.00 0.00 88 1014.2
20260905090023 78 195 0.0 2.0 0.00 0.00 0.00 87 1014.2
20260905084503 78 171 0.0 2.0 0.00 0.00 0.00 87 1014.2
20260905083006 77 209 0.0 2.0 0.00 0.00 0.00 87 1014.3
20260905081514 78 249 0.0 2.0 0.00 0.00 0.00 86 1014.4
20260905080019 78 105 0.0 2.0 0.00 0.00 0.00 86 1014.5
20260905074503 78 242 0.0 2.0 0.00 0.00 0.00 85 1014.5
20260905073007 78 277 0.0 2.0 0.00 0.00 0.00 84 1014.7
20260905071510 78 268 0.0 3.0 0.00 0.00 0.00 83 1014.7
20260905070016 79 170 0.0 2.0 0.00 0.00 0.00 82 1014.9
20260905064526 79 204 0.0 2.0 0.00 0.00 0.00 81 1014.9
20260905063006 79 119 0.0 4.0 0.00 0.00 0.00 81 1014.9
20260905061508 80 128 0.0 2.0 0.00 0.00 0.00 79 1015.0
20260905060016 80 164 0.0 3.0 0.00 0.00 0.00 79 1015.1
20260905054528 80 250 0.0 4.0 0.00 0.00 0.00 78 1015.0
20260905053032 80 116 0.0 2.0 0.00 0.00 0.00 77 1014.9
20260905051521 81 286 0.0 4.0 0.00 0.00 0.00 76 1015.0
20260905050013 81 338 0.0 5.0 0.00 0.00 0.00 75 1015.0
20260905044519 81 121 1.0 8.0 0.00 0.00 0.00 75 1014.9
20260905043028 81 134 0.0 9.0 0.00 0.00 0.00 74 1014.9
20260905041529 81 128 0.0 3.0 0.00 0.00 0.00 74 1014.9
20260905040010 81 167 1.0 4.0 0.00 0.00 0.00 74 1014.8
20260905034517 81 246 0.0 4.0 0.00 0.00 0.00 72 1014.9
20260905033025 82 99 0.0 2.0 0.00 0.00 0.00 72 1014.7